TimeEST,TemperatureF,Dew PointF,Humidity,Sea Level PressureIn,VisibilityMPH,Wind Direction,Wind SpeedMPH,Gust SpeedMPH,PrecipitationIn,Events,Conditions,WindDirDegrees,DateUTC
12:03 AM,35.6,23.0,60,30.32,10.0,NNW,3.5,-,N/A,,Clear,340,2012-12-06 05:03:00
12:27 AM,35.6,23.0,60,30.31,10.0,NNW,6.9,-,N/A,,Clear,340,2012-12-06 05:27:00
12:48 AM,33.8,23.0,65,30.32,10.0,WNW,3.5,-,N/A,,Clear,290,2012-12-06 05:48:00
1:12 AM,33.8,23.0,65,30.32,10.0,Calm,Calm,-,N/A,,Clear,0,2012-12-06 06:12:00
1:33 AM,32.0,23.0,69,30.33,10.0,Calm,Calm,-,N/A,,Clear,0,2012-12-06 06:33:00
1:54 AM,32.0,23.0,69,30.33,10.0,Calm,Calm,-,N/A,,Clear,0,2012-12-06 06:54:00
2:15 AM,30.2,23.0,75,30.34,10.0,Calm,Calm,-,N/A,,Clear,0,2012-12-06 07:15:00
2:36 AM,30.2,23.0,75,30.34,10.0,Calm,Calm,-,N/A,,Clear,0,2012-12-06 07:36:00
2:57 AM,30.2,23.0,75,30.34,10.0,Calm,Calm,-,N/A,,Clear,0,2012-12-06 07:57:00
3:18 AM,28.4,23.0,80,30.34,10.0,Calm,Calm,-,N/A,,Clear,0,2012-12-06 08:18:00
3:39 AM,28.4,23.0,80,30.35,10.0,Calm,Calm,-,N/A,,Clear,0,2012-12-06 08:39:00
4:00 AM,26.6,23.0,86,30.36,10.0,Calm,Calm,-,N/A,,Clear,0,2012-12-06 09:00:00
4:21 AM,26.6,23.0,86,30.35,10.0,Calm,Calm,-,N/A,,Clear,0,2012-12-06 09:21:00
4:45 AM,26.6,23.0,86,30.36,10.0,Calm,Calm,-,N/A,,Clear,0,2012-12-06 09:45:00
5:48 AM,26.6,21.2,80,30.37,10.0,Calm,Calm,-,N/A,,Clear,0,2012-12-06 10:48:00
6:09 AM,26.6,21.2,80,30.37,10.0,Calm,Calm,-,N/A,,Clear,0,2012-12-06 11:09:00
6:30 AM,26.6,21.2,80,30.38,10.0,Calm,Calm,-,N/A,,Clear,0,2012-12-06 11:30:00
6:51 AM,26.6,23.0,86,30.38,10.0,Calm,Calm,-,N/A,,Clear,0,2012-12-06 11:51:00
7:12 AM,24.8,23.0,93,30.38,10.0,Calm,Calm,-,N/A,,Clear,0,2012-12-06 12:12:00
7:33 AM,26.6,21.2,80,30.39,10.0,Calm,Calm,-,N/A,,Clear,0,2012-12-06 12:33:00
7:54 AM,26.6,23.0,86,30.39,10.0,Calm,Calm,-,N/A,,Clear,0,2012-12-06 12:54:00
8:15 AM,28.4,23.0,80,30.40,10.0,Calm,Calm,-,N/A,,Clear,0,2012-12-06 13:15:00
9:00 AM,32.0,23.0,69,30.41,10.0,North,4.6,-,N/A,,Clear,10,2012-12-06 14:00:00
9:21 AM,33.8,23.0,65,30.41,10.0,ENE,3.5,-,N/A,,Clear,60,2012-12-06 14:21:00
10:03 AM,35.6,21.2,56,30.41,10.0,NE,4.6,-,N/A,,Clear,50,2012-12-06 15:03:00
10:24 AM,35.6,21.2,56,30.41,10.0,NE,4.6,-,N/A,,Clear,40,2012-12-06 15:24:00
10:45 AM,37.4,21.2,52,30.41,10.0,NNE,4.6,-,N/A,,Clear,20,2012-12-06 15:45:00
11:06 AM,35.6,21.2,56,30.40,10.0,ENE,3.5,-,N/A,,Clear,60,2012-12-06 16:06:00
11:27 AM,37.4,21.2,52,30.39,10.0,NW,3.5,-,N/A,,Clear,320,2012-12-06 16:27:00
11:48 AM,39.2,21.2,49,30.37,10.0,Calm,Calm,-,N/A,,Clear,0,2012-12-06 16:48:00
12:09 PM,37.4,21.2,52,30.36,10.0,Calm,Calm,-,N/A,,Clear,0,2012-12-06 17:09:00
12:30 PM,41.0,21.2,45,30.35,10.0,ENE,4.6,-,N/A,,Clear,60,2012-12-06 17:30:00
12:54 PM,41.0,21.2,45,30.33,10.0,East,5.8,-,N/A,,Clear,90,2012-12-06 17:54:00
1:15 PM,41.0,21.2,45,30.32,10.0,SSE,4.6,-,N/A,,Clear,160,2012-12-06 18:15:00
1:36 PM,41.0,21.2,45,30.32,10.0,ESE,3.5,-,N/A,,Clear,110,2012-12-06 18:36:00
1:57 PM,41.0,21.2,45,30.31,10.0,Calm,Calm,-,N/A,,Clear,0,2012-12-06 18:57:00
2:18 PM,42.8,21.2,42,30.31,10.0,SSE,4.6,-,N/A,,Clear,150,2012-12-06 19:18:00
2:39 PM,41.0,21.2,45,30.30,10.0,Calm,Calm,-,N/A,,Clear,0,2012-12-06 19:39:00
3:00 PM,42.8,21.2,42,30.30,10.0,South,4.6,-,N/A,,Clear,170,2012-12-06 20:00:00
3:21 PM,41.0,21.2,45,30.31,10.0,Calm,Calm,-,N/A,,Clear,0,2012-12-06 20:21:00
3:42 PM,41.0,23.0,49,30.30,10.0,ESE,3.5,-,N/A,,Clear,110,2012-12-06 20:42:00
4:03 PM,41.0,23.0,49,30.31,10.0,East,6.9,-,N/A,,Clear,100,2012-12-06 21:03:00
4:45 PM,37.4,23.0,56,30.30,10.0,ESE,4.6,-,N/A,,Clear,110,2012-12-06 21:45:00
5:06 PM,35.6,23.0,60,30.30,10.0,ESE,4.6,-,N/A,,Clear,120,2012-12-06 22:06:00
5:30 PM,35.6,23.0,60,30.31,10.0,ESE,3.5,-,N/A,,Clear,110,2012-12-06 22:30:00
5:51 PM,32.0,23.0,69,30.31,10.0,Calm,Calm,-,N/A,,Clear,0,2012-12-06 22:51:00
6:12 PM,32.0,23.0,69,30.31,10.0,Calm,Calm,-,N/A,,Clear,0,2012-12-06 23:12:00
6:33 PM,32.0,23.0,69,30.31,10.0,Calm,Calm,-,N/A,,Clear,0,2012-12-06 23:33:00
6:54 PM,30.2,23.0,75,30.31,10.0,Calm,Calm,-,N/A,,Clear,0,2012-12-06 23:54:00
7:15 PM,30.2,23.0,75,30.31,10.0,Calm,Calm,-,N/A,,Clear,0,2012-12-07 00:15:00
7:57 PM,28.4,23.0,80,30.31,10.0,Calm,Calm,-,N/A,,Clear,0,2012-12-07 00:57:00
8:18 PM,28.4,23.0,80,30.30,10.0,Calm,Calm,-,N/A,,Clear,0,2012-12-07 01:18:00
8:39 PM,28.4,23.0,80,30.29,10.0,Calm,Calm,-,N/A,,Clear,0,2012-12-07 01:39:00
9:21 PM,28.4,23.0,80,30.30,10.0,Calm,Calm,-,N/A,,Clear,0,2012-12-07 02:21:00
9:45 PM,28.4,24.8,86,30.30,10.0,Calm,Calm,-,N/A,,Clear,0,2012-12-07 02:45:00
10:06 PM,28.4,24.8,86,30.31,10.0,Calm,Calm,-,N/A,,Clear,0,2012-12-07 03:06:00
10:27 PM,28.4,24.8,86,30.31,10.0,Calm,Calm,-,N/A,,Clear,0,2012-12-07 03:27:00
10:48 PM,28.4,23.0,80,30.30,10.0,Calm,Calm,-,N/A,,Clear,0,2012-12-07 03:48:00
11:09 PM,26.6,24.8,93,30.30,10.0,Calm,Calm,-,N/A,,Clear,0,2012-12-07 04:09:00
11:30 PM,28.4,24.8,86,30.29,10.0,Calm,Calm,-,N/A,,Clear,0,2012-12-07 04:30:00
11:51 PM,28.4,24.8,86,30.28,10.0,Calm,Calm,-,N/A,,Clear,0,2012-12-07 04:51:00